www.pogodaiklimat.ru

Погода и климат >> Архив погоды >> Узбекистан >> Ташкент


АРХИВ ПОГОДЫ в Ташкенте

Время (UTC), дата Ветер
(напр.,м/с)
 
Видим.   Явления Облачность Т
(С)
Тd
(С)
f
(%)
Тe
(С)
Тes
(С)
Комфортность P
(гПа)
Po
(гПа)
Тmin
(С)
Tmax
(С)
R
(мм)
R24
(мм)
S
(см)
06 16.05 СЗ 1 50 км 9/0
[Ac lent Ci]
+30.0 +5.8 22 +29 +42 жарко 1007.1 953.6 +15.7 0.0
09 16.05 СЗ 2 50 км 9/1 1000 м
[Cu hum Ci fib]
+30.9 +2.5 16 +28 +41 жарко 1005.5 952.2
12 16.05 З 3 50 км 9/3 1000 м
[Sc Ac As Ci]
+30.0 +2.3 17 +28 +29 жарко 1005.5 952.1
15 16.05 З 2 10 км 10/3 1000 м
[Sc Ac As]
+25.8 +4.0 24 +25 +25 комфорт 1006.8 952.5 +31.6
18 16.05 Ю 2 10 км 10/0
[Ac As]
+22.6 +10.2 45 +24 +24 комфорт 1008.9 954.1 +31.6
21 16.05 СВ 1 10 км 10/5 600 м
[Sc Ac As]
+20.7 +11.3 55 +24 +24 комфорт 1009.0 953.8
00 17.05 штиль 0 50 км 10/10 600 м
[Cb calv]
+20.4 +11.0 55 +22 +22 комфорт 1008.9 953.7
03 17.05 штиль 0 10 км 9/9 1000 м
[Sc]
+21.2 +11.8 55 +23 +24 комфорт 1009.3 954.3
06 17.05 З 1 10 км 8/5 600 м
[Cu hum Ac lent]
+24.7 +11.4 43 +26 +31 жарко 1008.6 954.3 +19.5
09 17.05 З 2 10 км 8/3 600 м
[Cu med, cong Ci fib]
+27.6 +7.6 28 +27 +37 жарко 1006.8 953.0
12 17.05 З 1 10 км 9/3 600 м
[Cu med, cong Ci]
+27.1 +5.5 25 +26 +30 жарко 1006.7 952.7
15 17.05 ЮВ 2 10 км 8/0
[Ac lent Ci fib]
+22.9 +9.7 43 +25 +25 комфорт 1008.7 954.0 +28.7
18 17.05 ЮВ 1 10 км 6/0
[Ac lent]
+20.3 +9.9 51 +23 +23 комфорт 1010.3 954.9
21 17.05 СВ 1 10 км 9/0
[Ac lent Ci]
+18.3 +11.1 63 +20 +20 тепло 1009.8 954.1
00 18.05 СВ 1 10 км 9/0
[Ac lent]
+18.4 +10.4 60 +20 +20 тепло 1009.3 953.7
03 18.05 штиль 0 10 км в посл. час ливневой дождь 9/8 600 м
[Cb calv Ac lent]
+20.8 +11.4 55 +23 +24 комфорт 1010.4 955.2 0.0
06 18.05 В 1 10 км {ливн. осадки} 8/0
[]
+23.9 +11.1 45 +25 +38 комфорт 1010.1 955.5 +17.9 0.0
09 18.05 ЮЗ 1 10 км 9/8 1000 м
[Cu med, cong Ac lent]
+26.2 +10.7 38 +27 +30 жарко 1009.3 955.1
12 18.05 ЮЗ 3 10 км 9/6 1000 м
[Cb calv Ac lent Ci fib]
+24.3 +9.9 40 +25 +26 комфорт 1010.0 955.4
15 18.05 В 1 10 км 9/8 600 м
[Cb calv Ac lent Ci fib]
+22.5 +10.5 47 +24 +24 комфорт 1011.6 956.6 +26.5
18 18.05 Ю 1 10 км гроза без осадков 10/10 600 м
[Cb calv]
+19.3 +11.3 60 +21 +21 комфорт 1013.5 957.8 +26.5
21 18.05 В 1 10 км {гроза} 8/0
[Ci fib]
+16.8 +11.7 72 +18 +18 тепло 1013.7 957.6
00 19.05 З 1 10 км {гроза} 8/4 1000 м
[Sc Ac lent]
+15.3 +11.2 77 +16 +16 по сезону 1013.7 957.3
03 19.05 В 1 10 км 9/3 1000 м
[Sc Ac lent Ci fib]
+19.2 +11.4 61 +21 +24 комфорт 1014.5 958.8
06 19.05 ЮВ 2 10 км 8/3 1000 м
[Cu hum Ac lent Ci]
+23.7 +11.2 45 +25 +33 комфорт 1013.9 959.0 +14.8
09 19.05 Ю 2 50 км 8/8 1000 м
[Cu med, cong]
+25.9 +9.9 36 +27 +30 жарко 1012.8 958.4
12 19.05 50 км н/о +26.6 +9.4 34 +27 +29 жарко 1012.0 957.7
15 19.05 С 2 10 км 4/3 1000 м
[Cu hum Ac trans Ci fib]
+23.0 +11.2 47 +25 +25 комфорт 1013.0 958.1 +27.7
18 19.05 С 3 10 км 3/1 1000 м
[Cu hum Ac trans]
+19.0 +11.3 61 +20 +20 тепло 1014.7 958.9 +27.7
21 19.05 СВ 2 10 км ясно +17.6 +9.7 60 +18 +18 по сезону 1013.5 957.5
00 20.05 С 2 50 км 1/0
[Ci fib]
+16.4 +8.6 60 +17 +17 тепло 1012.8 956.5
03 20.05 СВ 2 50 км ясно +23.6 +9.7 41 +25 +31 комфорт 1011.8 957.0
06 20.05 Ю 2 50 км ясно +28.0 +5.6 24 +27 +45 жарко 1010.6 956.5 +15.3
09 20.05 ЮВ 2 50 км ясно +30.2 +4.6 20 +28 +45 жарко 1009.2 955.6
12 20.05 ЮВ 2 50 км 3/0
[Ci fib]
+30.5 +8.2 25 +30 +35 жарко 1007.5 954.1
15 20.05 В 1 10 км 8/0
[Ac lent Ci fib]
+26.2 +9.3 34 +27 +27 жарко 1008.1 953.9 +31.0
18 20.05 СВ 2 10 км 3/0
[Ci fib]
+21.8 +9.5 45 +23 +23 комфорт 1008.6 953.6 +31.0
21 20.05 штиль 0 10 км ясно +20.2 +8.4 47 +21 +21 комфорт 1007.9 952.7
00 21.05 СВ 2 50 км 3/0
[Ci fib]
+19.2 +8.9 51 +21 +21 комфорт 1008.1 952.7
03 21.05 В 1 50 км 8/0
[Ci fib]
+26.7 +11.1 38 +28 +34 жарко 1006.9 952.9
06 21.05 В 2 10 км 9/8 600 м
[Sc Ac lent]
+30.9 +7.3 23 +30 +32 жарко 1006.3 953.0 +18.8
09 21.05 З 2 10 км 9/8 600 м
[Sc Ac lent]
+30.7 +9.2 26 +30 +32 жарко 1007.0 953.6
12 21.05 В 1 10 км в посл. час дождь 9/8 600 м
[Sc Ac lent]
+27.1 +8.4 31 +27 +28 жарко 1008.6 954.6
15 21.05 ЮВ 2 10 км в посл. час ливневой дождь 9/8 600 м
[Sc Ac lent]
+22.8 +11.2 48 +25 +25 комфорт 1009.9 955.1 +32.0 0.0
18 21.05 В 1 10 км {ливн. осадки} 3/0
[Ac lent]
+20.6 +11.0 54 +24 +24 комфорт 1009.5 954.3 +32.0 0.0
21 21.05 СВ 1 10 км 6/0
[Ac lent]
+18.6 +11.3 62 +20 +20 тепло 1009.6 954.0
00 22.05 СЗ 1 10 км {дождь} 9/8 600 м
[Sc Ac lent]
+19.0 +13.0 68 +21 +21 комфорт 1010.9 955.4
03 22.05 СЗ 2 10 км 6/0
[Ac lent Ci fib]
+20.5 +6.7 41 +22 +26 комфорт 1012.6 957.1
06 22.05 ЮЗ 2 50 км 8/3 1000 м
[Cu hum Ac cast Cc]
+24.6 +1.3 22 +23 +31 комфорт 1012.8 958.1 +18.2 0.4
09 22.05 ЮЗ 3 50 км 9/1 1000 м
[Cu hum Ac lent Cc]
+25.7 +2.1 22 +24 +32 комфорт 1012.1 957.5
12 22.05 СЗ 4 10 км 9/5 1000 м
[Cu Sc Ac lent Cc]
+24.3 +5.1 29 +24 +25 комфорт 1012.2 957.5
15 22.05 З 4 10 км 9/8 1000 м
[Cu Sc Ac lent]
+18.5 -0.5 28 +18 +18 холодно 1015.0 958.9 +26.5
18 22.05 СЗ 4 10 км 8/3 1000 м
[Cu hum Ac lent]
+15.7 -0.7 33 +15 +15 прохладно 1015.9 959.3 +26.5
21 22.05 СЗ 3 10 км 8/0
[Ac lent Ci fib]
+13.9 -0.7 37 +13 +13 прохладно 1015.2 958.3
00 23.05 штиль 0 50 км 9/0
[Ac lent Cc]
+10.2 +3.6 64 +10 +10 холодно 1015.5 957.9

 

Местоположение метеостанции Ташкент (Ташкентская область, Узбекистан): широта 41.27 долгота 69.27 высота над уровнем моря 466 м.

В архиве по умолчанию представлена погода в Ташкенте за последнюю неделю. Архивные данные за месяц целиком и за предыдущие месяцы, начиная с января 2011 года, Вы можете получить, выбрав интересующий диапазон дат из раскрывающегося списка и нажав кнопку "Ввод!".


*Определитесь, кто Вы:
робот инопланетянин человек

Внимание! Время в таблицах - всемирное. Для получения местного времени необходимо прибавить поправку, которая равна 5 ч.

Смотрите также архив погоды в соседних городах и на ближайших метеорологических станциях:

Погода в Каунчи (Ташкентская область, Узбекистан) (31 км)
Погода в Туябугузе (Ташкентская область, Узбекистан) (37 км)
Погода в Келесе (Южно-Казахстанская область, Казахстан) (38 км)
Погода в Красноярской (Южно-Казахстанская область, Казахстан) (54 км)
Погода в Казыгурте (Южно-Казахстанская область, Казахстан) (55 км)
Погода в Дуканте (Ташкентская область, Узбекистан) (68 км)
Погода в Чимгане (Ташкентская область, Узбекистан) (70 км)
Погода в Сырдарье (Сырдарьинская область, Узбекистан) (70 км)
Погода в Ангрене (Ташкентская область, Узбекистан) (82 км)
Погода в Жетысае (Южно-Казахстанская область, Казахстан) (96 км)

Пояснения к столбцам:

Ветер - указаны скорость ветра в м/с - средняя за 10 мин, порывы в срок и между сроками (в фигурных скобках) и направление, откуда дует ветер: С - северный, СВ - северо-восточный, В - восточный, ЮВ - юго-восточный, Ю - южный, ЮЗ - юго-западный, З - западный, СЗ - северо-западный.
Видимость - горизонтальная дальность видимости в метрах или километрах. При видимости от 1 до 10 км при отсутствии осадков обычно наблюдается дымка, при ухудшении видимости до 1 км и менее - туман. В сухую погоду видимость может ухудшаться дымом, пылью или мглою.
Явления - указаны атмосферные явления, наблюдавшиеся в срок или в последний час перед сроком; фигурными скобками обозначены явления, наблюдавшиеся между сроками (за 1-3 часа до срока); квадратными скобками обозначены град или гололедные отложения с указанием их диаметра в мм.
Облачность - указаны через наклонную черту общая и нижняя облачность в баллах и высота нижней границы облаков в метрах; квадратными скобками обозначены формы облаков: Ci - перистые, Cs - перисто-слоистые, Cc - перисто-кучевые, Ac - высококучевые, As - высокослоистые, Sc - слоисто-кучевые, Ns - слоисто-дождевые, Cu - кучевые, Cb - кучево-дождевые. Подробнее классификацию облаков см. в Атласе облаков (PDF).
T - Температура воздуха - температура, измеренная на высоте 2 м над землей.
Td - Температура точки росы - температура, при понижении до которой содержащийся в воздухе водяной пар достигнет насыщения.
f - Относительная влажность воздуха - влажноcть воздуха, измеренная на высоте 2 м над землей.
Te - Эффективная температура - температура, которую ощущает одетый по сезону человек в тени. Характеристика душности погоды. При расчете учитывается влияние влажности воздуха и скорости ветра на теплоощущения человека.
Tes - Эффективная температура на солнце - температура, которую ощущает человек, с поправкой на солнечный нагрев. Характеристика знойности погоды. Зависит от высоты солнца над горизонтом, облачности и скорости ветра. Ночью, в пасмурную погоду, а также при ветре 12 м/с и более поправка равна нулю.
P - Атмосферное давление - приведенное к уровню моря атмосферное давление.
Po - Атмосферное давление - измеренное на уровне метеостанции атмосферное давление.
Tmin - Минимальная температура - минимум температуры воздуха на высоте 2 м над землей.
Tmax - Максимальная температура - максимум температуры воздуха на высоте 2 м над землей.
R - Количество осадков - Количество выпавших осадков за период времени, мм. При наведении курсора мыши на число - период времени, за который выпало указанное количество осадков.
R24 - Количество осадков - Количество выпавших осадков за 24 часа, мм.
S - Снежный покров - Высота снежного покрова, см. При наведении курсора мыши на число - состояние снежного покрова и степень покрытия местности в баллах.